STARLINK-35775

Last updated on Fri Dec 19 2025 00:02:09 GMT+0000 (Coordinated Universal Time)

1 67038U 25294J 25351.83335648 -.01320978 51992-3 -32079-2 0 9996 2 67038 43.0000 151.2927 0001833 281.1029 130.8423 15.95418502 2179
UTC large
Height (km)
Speed (km/s)
/
Latitude / Longitude
Inclination (degrees)
Orbital Period (minutes)
Azimuth
Elevation
Range (km)
Doppler Factor

Next 0 passes for location: London (51.5072 / 0.1276)

Sorry there are no passes over London.